Regional Weather Roundup
Issued by NWS Raleigh/Durham, NC

Current Version | Previous Version | Text Only | Print | Product List | Glossary On
Versions: 1 2 3 4 5 6 7 8 9 10 11 12 13 14 15 16 17 18 19 20 21 22 23 24 25 26 27 28 29 30 31 32 33 34 35 36 37 38 39 40 41 42 43 44 45 46 47 48 49 50
000
ASUS42 KRAH 250810
RWRRAH
NORTH CAROLINA WEATHER ROUNDUP
NATIONAL WEATHER SERVICE RALEIGH NC
300 AM EST THU DEC 25 2014

NOTE: "FAIR" INDICATES FEW OR NO CLOUDS BELOW 12,000 FEET WITH NO
SIGNIFICANT WEATHER AND/OR OBSTRUCTIONS TO VISIBILITY.

NCZ001-053-055-056-065-067-250900-
WESTERN NORTH CAROLINA

CITY           SKY/WX    TMP DP  RH WIND       PRES   REMARKS
ASHEVILLE      CLOUDY    42  34  73 N13       29.84R
JEFFERSON      MOCLDY    38  31  76 W18G25    29.75R WCI  28
MORGANTON      CLOUDY    46  39  76 W6        29.85R
HICKORY        CLOUDY    47  42  83 W5        29.79R
RUTHERFORDTON  CLOUDY    47  37  68 W8        29.83R
MOUNT AIRY     CLOUDY    49  41  75 NW5       29.78R
BOONE          DRIZZLE   37  34  90 NW28G40   29.75S WCI  24
$$

NCZ021-022-025-041-071-084-088-250900-
CENTRAL NORTH CAROLINA

CITY           SKY/WX    TMP DP  RH WIND       PRES   REMARKS
CHARLOTTE      CLOUDY    50  45  83 SW10      29.81R
GREENSBORO     CLOUDY    52  45  77 W12       29.73R
WINSTON-SALEM  CLOUDY    52  45  77 W8        29.76R
RALEIGH-DURHAM LGT RAIN  60  56  86 SW9       29.73R
FORT BRAGG     CLOUDY    61  54  77 SW14G22   29.74R
FAYETTEVILLE   LGT RAIN  62  58  86 W18G28    29.75R
BURLINGTON     CLOUDY    59  48  67 SW14      29.72R
LAURINBURG     CLOUDY    59  50  72 W15G22    29.78R
$$

NCZ011-015-027-028-043-044-047-080-103-250900-
NORTHEASTERN NORTH CAROLINA

CITY           SKY/WX    TMP DP  RH WIND       PRES   REMARKS
ROCKY MT-WILSO CLOUDY    65  61  87 S7        29.72R
GREENVILLE     CLOUDY    64  63  94 SW8       29.76S
WASHINGTON     CLOUDY    65  63  91 SW7       29.75R
ELIZABETH CITY CLOUDY    69  64  84 SW14      29.72R
MANTEO         CLOUDY    64  64 100 SW18      29.73R
CAPE HATTERAS  CLOUDY    64  64 100 SW17G26   29.76R FOG
$$

NCZ078-087-090-091-093-098-101-250900-
SOUTHEASTERN NORTH CAROLINA

CITY           SKY/WX    TMP DP  RH WIND       PRES   REMARKS
LUMBERTON      CLOUDY    62  54  74 W21G32    29.77R
GOLDSBORO      CLOUDY    66  64  94 VRB6      29.70F
KINSTON        CLOUDY    65  64  94 SW8       29.74F
KENANSVILLE    CLOUDY    64  63  95 CALM      29.75F
NEW BERN       CLOUDY    67  63  87 SW8       29.75S
CHERRY POINT   CLOUDY    65  63  93 SW10      29.77R
BEAUFORT       CLOUDY    62  61  96 SW10      29.76S
JACKSONVILLE   CLOUDY    65  63  93 SW10      29.75S
WILMINGTON     CLOUDY    64  62  93 SW9       29.76F
$$



USA.gov is the U.S. government's official web portal to all federal, state and local government web resources and services.